Temperature
21 20 19 19 19 19 18 18 18 17 17 17 16 16 15 15 15 15 15 15 14 14 14 14 14 14 14 14 14 14 14 14 15 15 15 15 15 15 15 15 15 15 15
21 20 19 19 19 19 18 18 18 17 17 17 16 16 16 15 15 15 15 15 15 14 14 14 14 14 14 14 14 14 14 14 14 15 16 16 16 15 15 15 15 15 15
21 20 19 19 19 19 18 18 18 17 17 17 16 16 16 15 15 15 15 15 15 15 15 14 14 14 14 14 14 14 14 14 14 15 15 16 16 15 15 15 15 15 15
20 20 19 19 19 19 18 18 18 17 17 17 16 16 16 16 15 15 15 15 15 15 15 14 14 14 14 14 14 14 14 14 14 14 14 14 14 15 15 15 15 15 15
20 20 19 19 19 19 19 18 18 18 17 17 17 16 16 16 15 15 15 15 15 15 14 14 14 14 14 14 14 14 14 14 14 14 14 14 14 15 15 15 15 15 15
20 19 19 19 19 19 19 18 18 18 18 17 17 16 16 16 15 15 15 15 15 15 14 14 14 14 14 14 14 14 14 14 14 14 14 14 14 14 14 15 15 15 15
20 19 19 19 19 19 19 18 18 18 17 17 17 16 16 16 15 15 15 15 15 14 14 14 14 14 14 14 14 14 13 13 13 13 13 13 13 13 14 14 15 15 15
20 19 19 19 19 19 18 18 18 18 17 17 17 16 16 16 16 15 15 15 15 14 14 14 14 14 14 14 14 14 13 13 13 13 13 13 13 13 13 13 14 15 15
19 19 18 18 19 18 18 18 18 17 17 17 17 16 16 16 16 15 15 15 15 15 14 14 14 14 14 14 13 13 13 13 13 13 13 13 13 13 13 13 13 14 14
19 18 18 18 18 18 18 18 18 17 17 17 16 16 16 16 16 15 15 15 15 14 14 14 14 14 14 14 13 13 13 13 13 13 13 13 13 13 13 13 13 13 13
19 18 18 18 18 18 18 18 17 17 17 17 16 16 16 16 15 15 15 15 14 14 14 14 14 14 14 13 13 13 13 13 13 13 13 13 13 12 12 12 12 12 13
19 18 18 18 18 18 18 18 17 17 17 16 16 16 16 16 15 15 15 14 14 14 14 14 13 13 13 13 13 13 13 13 13 13 13 12 12 12 12 12 12 12 12
18 18 18 18 18 18 18 17 17 17 17 16 16 16 16 15 15 15 14 14 14 14 14 13 13 13 13 13 13 13 13 12 12 12 12 12 12 12 12 12 12 12 12
18 18 18 18 18 18 17 17 17 17 17 16 16 16 15 15 15 14 14 14 14 14 13 13 13 13 13 13 13 13 12 12 12 12 12 12 12 12 11 11 11 11 11
18 18 18 18 18 17 17 17 17 17 16 16 16 15 15 15 15 14 14 14 14 13 13 13 13 13 13 13 12 12 12 12 12 12 12 12 12 12 11 11 11 11 11
18 18 18 18 18 17 17 17 17 17 16 16 16 15 15 15 15 14 14 14 14 13 13 13 12 12 12 13 13 12 12 11 11 11 11 11 11 11 11 11 11 11 10
18 18 18 18 18 17 17 17 17 16 16 16 15 15 15 15 14 14 14 13 13 13 13 12 12 12 12 12 12 12 12 11 11 11 11 11 10 11 10 10 10 10 10
19 18 18 18 18 17 17 17 17 16 16 15 15 15 15 15 14 14 14 13 13 13 12 12 12 12 12 12 12 12 11 11 11 10 10 10 10 10 10 10 9 9 9
19 19 19 18 18 17 17 17 16 16 16 15 15 15 15 14 14 14 13 13 13 12 12 12 12 11 11 12 11 11 10 10 10 10 10 10 10 10 10 9 9 9 9
19 18 18 18 17 17 17 16 16 16 16 16 15 15 14 14 14 13 13 13 12 12 12 12 11 11 11 11 11 11 10 10 10 9 9 10 10 9 9 9 8 8 9
19 18 18 18 18 17 17 16 16 16 16 15 15 14 14 14 13 13 13 12 12 11 11 11 11 11 11 10 10 10 10 9 9 9 9 9 9 9 9 9 8 8 8
18 18 18 18 17 17 17 16 16 16 15 15 14 14 14 13 13 13 12 12 11 11 11 10 10 10 10 10 10 10 10 9 9 9 8 8 9 9 9 8 8 8 8
18 18 18 17 17 17 17 16 16 15 15 15 14 14 13 13 13 12 12 11 11 11 10 10 10 10 9 9 9 9 9 9 8 8 8 8 8 8 8 8 8 8 7
18 18 17 17 17 17 17 16 16 15 15 15 14 13 13 12 12 12 11 11 11 10 10 10 10 9 9 9 9 8 8 8 8 8 8 8 8 8 8 7 7 7 7
18 17 17 17 17 17 16 16 15 15 15 14 14 13 12 12 12 11 11 11 11 10 10 10 9 9 9 9 9 8 8 8 7 7 7 7 7 7 7 7 7 6 6
18 17 17 17 16 16 16 16 15 15 14 13 13 13 12 12 12 11 11 11 11 10 10 10 9 9 9 8 8 8 8 8 7 7 6 6 6 6 6 6 6 6 6
Wind_Speed
8 8 8 8 7 7 7 7 7 6 5 4 3 3 4 4 4 5 6 6 7 7 7 6 7 7 7 7 7 6 6 6 4 2 3 5 7 7 6 6 6 6 7
9 9 9 8 8 8 7 7 6 6 5 3 3 3 3 3 4 4 5 6 7 7 7 7 6 6 6 7 8 7 5 5 5 4 2 2 4 5 6 6 6 7 6
10 10 9 9 8 8 7 7 7 6 5 5 4 3 3 3 3 4 4 5 6 7 7 8 7 7 7 7 8 7 7 6 6 7 5 3 3 3 4 7 6 7 6
9 10 9 9 8 8 7 8 7 7 6 5 4 4 3 3 4 3 3 4 5 6 7 7 7 7 7 7 7 8 6 6 5 5 6 6 4 2 2 4 6 7 7
10 10 9 9 8 8 8 7 8 7 6 5 5 3 3 3 3 3 4 4 5 6 6 6 7 7 7 7 8 7 8 6 7 6 5 5 4 5 4 4 4 5 6
10 9 9 8 8 8 8 8 8 7 6 5 5 4 4 3 3 3 3 3 3 4 6 5 6 6 6 7 7 7 8 7 7 6 6 5 5 5 4 4 4 4 5
11 10 10 10 10 10 9 9 9 8 7 6 5 4 4 3 3 3 3 3 3 4 5 4 5 5 6 6 6 6 7 7 7 7 6 6 5 5 4 4 4 4 3
11 11 11 11 10 11 10 10 9 8 7 6 5 5 4 2 3 3 3 3 3 4 4 4 4 5 5 5 6 5 6 6 6 7 6 5 5 5 5 5 5 4 3
12 11 11 11 11 11 10 10 10 9 8 7 6 5 4 3 3 3 3 3 3 3 4 4 4 4 5 5 5 5 6 6 6 6 6 5 5 5 4 4 4 5 4
13 12 11 11 11 10 10 10 9 9 9 7 6 5 4 4 3 3 3 3 3 3 3 3 3 4 4 5 5 5 5 6 6 5 6 6 5 5 4 4 4 4 4
14 13 12 11 11 11 10 10 9 9 8 7 7 6 5 4 4 3 3 2 3 3 3 3 3 4 4 4 5 5 5 6 6 6 7 7 7 5 4 4 4 4 4
14 13 12 12 11 11 11 10 10 9 8 7 7 6 6 5 4 4 3 3 3 3 3 4 4 4 4 4 5 5 5 5 6 6 6 6 5 6 6 5 5 4 5
14 13 13 12 12 11 11 11 10 9 9 8 8 7 6 5 4 4 3 3 3 3 3 4 4 4 4 3 3 4 4 4 5 5 6 6 6 6 5 5 5 5 5
15 14 13 13 12 12 12 11 10 10 9 9 8 7 7 6 5 5 4 3 3 3 3 3 4 4 3 3 3 3 3 3 4 4 5 6 6 7 7 5 6 6 6
16 16 15 14 13 13 12 12 11 10 10 10 9 8 7 6 6 5 4 4 3 2 3 3 3 3 3 4 4 3 3 3 3 4 4 5 6 7 7 6 7 7 6
17 16 16 15 15 15 14 13 12 11 11 10 9 8 7 7 6 5 5 4 3 3 3 2 3 3 3 6 5 5 3 3 3 4 4 4 4 4 3 4 6 7 7
17 17 17 16 16 15 15 14 13 12 11 10 10 9 8 8 7 6 5 4 4 3 2 2 2 2 4 4 4 5 4 3 4 4 5 4 4 6 7 5 5 6 5
17 17 16 16 15 15 15 14 13 13 12 11 10 9 9 8 7 6 5 4 3 3 2 1 1 1 3 4 3 5 4 3 3 4 5 5 6 7 9 9 8 8 7
16 16 16 16 16 16 15 15 14 13 13 12 11 10 10 9 8 7 6 4 3 3 2 2 1 1 0 2 3 5 3 3 4 4 5 6 6 7 9 9 9 9 8
13 14 15 16 16 16 16 16 15 14 13 12 11 11 10 9 8 7 6 5 4 3 3 2 2 1 1 2 3 6 3 4 4 4 4 3 5 8 10 9 9 10 10
14 15 15 16 16 16 16 16 15 14 13 12 11 10 10 9 8 7 6 5 4 4 3 3 2 2 2 1 1 5 4 4 5 5 5 4 4 8 10 11 9 10 12
14 15 15 15 15 16 17 16 14 13 12 12 11 11 10 9 7 7 6 5 5 4 4 3 3 2 2 2 1 3 5 7 6 6 6 5 7 10 11 10 9 12 12
14 14 15 15 15 16 16 16 14 13 13 13 12 11 10 9 8 8 7 6 5 4 4 3 3 3 2 2 3 5 6 7 6 6 6 9 11 11 10 8 10 11 9
13 14 15 15 15 15 15 14 14 14 14 13 12 11 11 10 9 7 7 6 5 5 5 4 4 4 3 3 3 4 4 6 7 7 7 9 11 10 9 10 8 8 8
12 14 15 15 15 15 15 14 14 15 15 14 12 11 10 9 9 8 7 7 6 5 5 5 5 5 5 3 3 5 6 6 7 8 8 8 8 8 8 8 8 8 8
12 13 14 14 14 15 14 14 14 15 14 13 12 10 9 8 8 8 7 6 7 5 7 7 7 6 5 5 5 7 8 9 9 8 8 9 9 9 9 9 9 9 9
Wind_Direction
149 147 150 152 153 150 145 141 143 139 136 127 117 104 92 80 70 58 48 39 34 31 33 28 30 24 31 28 28 26 39 36 19 44 79 78 59 51 49 39 38 49 46
153 151 156 156 158 155 153 150 147 144 137 121 108 102 93 82 72 65 58 40 36 32 30 31 33 34 33 33 31 29 26 37 27 11 26 75 78 48 45 42 40 40 43
165 160 160 157 159 158 159 155 151 146 139 132 121 122 116 116 97 75 57 40 38 38 34 34 34 33 35 35 29 28 29 30 35 30 17 25 38 32 48 41 42 40 34
170 164 164 161 161 159 160 158 153 145 140 142 136 125 110 92 76 65 64 62 51 45 39 39 38 39 38 37 34 36 31 27 34 41 34 35 31 10 43 51 41 38 35
173 169 168 164 159 156 156 155 148 141 139 136 126 129 108 95 90 80 74 66 63 50 46 42 42 41 40 39 38 34 31 35 34 33 33 35 31 20 29 38 29 40 38
171 166 161 160 156 153 155 155 149 141 140 141 137 127 113 107 98 82 70 69 71 58 53 46 46 44 41 39 37 37 41 35 34 32 34 30 29 21 21 22 26 31 31
172 167 164 164 160 159 159 158 154 149 149 149 143 132 125 121 105 88 78 64 68 61 52 48 46 44 42 39 34 38 37 40 37 34 29 29 30 22 12 9 15 15 25
173 171 169 166 163 162 162 161 159 155 154 153 144 135 129 120 99 83 77 73 65 59 57 53 52 49 43 43 41 36 38 35 39 40 34 27 26 20 17 7 356 357 17
173 170 168 168 165 164 165 164 161 158 157 153 143 136 130 123 110 101 87 77 73 65 60 65 63 59 50 41 40 39 39 36 34 34 34 27 26 17 14 8 1 351 348
172 169 168 168 165 163 163 164 164 160 158 156 148 138 136 130 120 108 92 82 74 66 63 62 68 66 59 52 43 40 35 41 44 34 32 25 21 17 15 7 3 358 345
174 170 168 166 162 161 162 162 163 161 159 160 153 149 143 138 135 118 102 89 77 74 66 62 58 58 56 59 57 44 40 37 40 37 37 31 19 15 15 9 4 1 348
173 169 167 165 165 166 166 165 165 162 160 160 156 152 147 148 143 129 118 103 88 77 70 72 69 64 57 53 53 46 41 38 36 33 30 26 25 20 13 4 2 1 349
171 169 169 170 169 169 168 166 166 161 157 158 158 156 155 150 143 134 122 111 100 91 81 74 67 62 56 51 42 39 35 38 35 27 20 17 18 14 14 4 0 353 348
175 174 175 174 173 171 170 168 165 162 159 159 160 158 154 150 145 135 130 122 111 100 87 76 70 63 54 42 36 32 30 32 28 21 17 12 10 5 360 356 353 346 340
181 180 179 177 175 173 172 168 165 165 163 162 162 159 154 148 144 139 136 126 114 106 94 84 75 68 54 39 24 28 22 18 17 14 13 20 18 11 359 350 344 340 333
187 184 183 179 179 177 174 170 168 168 167 166 162 155 156 151 149 146 140 133 126 115 103 94 84 73 58 50 20 345 355 354 356 358 354 359 0 356 327 328 325 323 322
189 187 186 184 183 180 175 172 170 167 169 166 162 162 162 159 158 153 149 148 146 132 123 109 94 76 66 56 22 341 328 337 344 343 344 345 348 337 337 322 288 287 280
190 189 186 183 181 176 173 170 167 169 169 167 166 166 166 164 161 160 160 167 161 149 155 149 125 77 55 43 8 321 309 324 332 333 333 330 336 350 339 325 320 317 316
190 187 184 179 176 174 172 170 171 172 172 172 173 172 171 168 167 167 170 170 169 169 179 180 197 227 99 56 348 308 312 313 320 326 331 329 329 359 334 317 315 314 313
184 181 177 175 175 173 171 173 174 176 177 176 176 174 173 172 173 175 175 173 178 184 191 195 225 246 287 62 340 306 298 306 314 318 318 350 334 337 326 315 314 312 316
177 174 173 176 175 171 172 177 178 181 177 173 173 173 174 176 175 175 177 180 185 192 206 212 227 242 274 205 306 308 299 305 306 309 311 328 347 321 314 306 305 312 312
172 172 174 174 173 173 175 179 182 177 169 168 171 175 175 176 175 177 183 188 191 200 212 223 231 241 245 280 272 293 293 303 297 300 305 320 327 311 304 300 304 302 298
173 174 174 171 172 177 179 181 177 171 169 170 175 178 179 180 182 184 187 193 200 213 222 228 240 247 259 241 223 255 269 278 282 291 306 302 298 295 290 283 289 291 292
174 175 175 175 176 179 183 182 173 172 173 176 180 182 184 186 189 194 198 203 208 216 225 233 243 253 259 269 277 280 273 257 266 282 282 264 264 264 274 285 286 289 294
175 178 180 181 179 178 181 181 176 176 180 182 184 188 191 192 196 199 206 213 217 225 231 238 247 254 260 280 310 292 291 297 302 304 294 294 296 297 297 298 299 298 296
176 179 182 183 182 180 181 181 180 182 185 187 189 191 193 196 201 205 210 216 232 222 229 244 254 252 255 273 272 274 281 287 291 289 285 288 291 294 298 299 299 298 298
Height
1558 1559 1561 1562 1564 1566 1567 1567 1568 1568 1569 1569 1570 1570 1569 1569 1567 1566 1565 1563 1562 1561 1559 1558 1557 1554 1553 1551 1550 1548 1547 1545 1544 1545 1544 1544 1543 1542 1541 1541 1540 1540 1539
1557 1559 1561 1562 1564 1566 1567 1568 1568 1569 1569 1569 1570 1570 1569 1569 1568 1567 1566 1565 1564 1562 1561 1560 1558 1557 1555 1553 1551 1549 1549 1548 1546 1546 1546 1545 1546 1544 1543 1542 1542 1541 1541
1556 1558 1560 1562 1563 1565 1566 1568 1568 1569 1569 1570 1570 1570 1570 1570 1570 1569 1568 1566 1565 1564 1562 1561 1560 1558 1557 1555 1553 1552 1550 1550 1549 1547 1547 1547 1546 1546 1546 1544 1544 1543 1542
1554 1557 1559 1561 1563 1564 1566 1567 1568 1569 1570 1570 1571 1572 1572 1572 1571 1570 1569 1568 1566 1565 1564 1563 1562 1560 1559 1557 1556 1554 1553 1552 1551 1550 1548 1549 1548 1548 1547 1547 1546 1544 1544
1553 1555 1557 1559 1561 1563 1565 1567 1568 1569 1570 1571 1571 1572 1572 1572 1571 1571 1570 1569 1568 1567 1565 1564 1563 1562 1561 1559 1558 1556 1555 1554 1553 1552 1551 1550 1550 1550 1549 1548 1548 1546 1545
1551 1553 1556 1558 1560 1562 1564 1566 1567 1568 1570 1570 1571 1572 1572 1572 1572 1571 1571 1570 1569 1568 1567 1566 1565 1564 1563 1561 1560 1558 1557 1556 1555 1554 1553 1553 1552 1551 1550 1549 1549 1548 1547
1549 1552 1554 1556 1558 1561 1563 1565 1566 1568 1569 1570 1571 1572 1572 1572 1572 1572 1571 1571 1571 1570 1568 1567 1566 1565 1564 1563 1561 1560 1559 1558 1556 1556 1555 1554 1553 1552 1552 1551 1550 1549 1548
1547 1550 1552 1554 1557 1559 1562 1564 1566 1567 1569 1570 1571 1572 1572 1572 1572 1572 1572 1571 1571 1570 1569 1568 1567 1566 1565 1564 1563 1562 1561 1560 1559 1557 1556 1555 1554 1554 1553 1552 1551 1550 1549
1544 1547 1550 1553 1556 1558 1561 1563 1565 1567 1568 1570 1571 1572 1572 1572 1572 1572 1572 1571 1571 1570 1569 1569 1568 1567 1566 1565 1564 1563 1562 1561 1560 1559 1558 1557 1556 1554 1554 1553 1552 1552 1550
1542 1545 1548 1551 1554 1557 1560 1562 1564 1566 1568 1569 1570 1571 1572 1572 1572 1572 1572 1572 1571 1570 1570 1570 1569 1568 1566 1565 1564 1564 1562 1562 1560 1559 1558 1557 1557 1555 1554 1553 1552 1552 1551
1539 1543 1546 1549 1552 1555 1558 1561 1563 1565 1567 1568 1569 1570 1571 1571 1571 1571 1571 1571 1571 1570 1570 1569 1569 1568 1567 1566 1565 1564 1563 1562 1562 1561 1559 1558 1556 1556 1555 1553 1553 1552 1551
1537 1541 1544 1547 1550 1554 1556 1559 1561 1563 1565 1567 1568 1569 1570 1570 1571 1571 1571 1571 1571 1570 1570 1569 1569 1568 1567 1566 1566 1564 1563 1563 1562 1561 1560 1558 1557 1555 1555 1553 1552 1551 1550
1535 1538 1542 1545 1548 1551 1554 1557 1559 1561 1563 1565 1566 1568 1569 1569 1570 1570 1570 1570 1570 1570 1569 1569 1568 1568 1567 1566 1565 1565 1564 1563 1562 1561 1560 1559 1557 1556 1554 1553 1552 1550 1549
1531 1535 1538 1542 1545 1549 1552 1555 1557 1559 1561 1563 1565 1566 1567 1568 1568 1569 1569 1569 1569 1569 1569 1568 1568 1567 1566 1566 1565 1564 1564 1563 1562 1560 1559 1558 1557 1555 1554 1552 1551 1549 1548
1528 1531 1535 1539 1542 1545 1549 1552 1554 1557 1559 1561 1563 1564 1565 1566 1567 1567 1567 1568 1568 1568 1568 1568 1567 1566 1565 1565 1564 1564 1563 1562 1561 1560 1559 1557 1555 1554 1552 1551 1549 1548 1547
1524 1527 1531 1535 1538 1542 1545 1549 1552 1554 1557 1559 1561 1562 1563 1564 1565 1566 1566 1566 1567 1567 1567 1566 1566 1565 1565 1564 1563 1562 1562 1561 1560 1559 1558 1556 1554 1552 1550 1549 1547 1546 1545
1518 1522 1526 1530 1535 1539 1542 1545 1549 1552 1555 1557 1559 1560 1561 1562 1563 1564 1565 1565 1565 1565 1565 1565 1565 1564 1564 1563 1562 1561 1560 1560 1559 1558 1556 1554 1553 1551 1549 1547 1545 1544 1542
1514 1518 1522 1527 1531 1536 1539 1543 1546 1549 1552 1554 1556 1558 1559 1560 1561 1562 1563 1563 1564 1564 1564 1564 1563 1563 1562 1561 1560 1559 1559 1558 1557 1555 1554 1553 1551 1549 1547 1545 1543 1542 1540
1510 1514 1519 1523 1527 1531 1535 1539 1543 1546 1549 1551 1553 1555 1557 1558 1559 1560 1561 1561 1562 1562 1562 1562 1561 1561 1560 1559 1558 1557 1557 1556 1555 1553 1552 1550 1548 1546 1544 1542 1540 1538 1536
1507 1511 1515 1520 1524 1528 1532 1536 1539 1542 1545 1548 1550 1552 1554 1555 1557 1558 1559 1559 1559 1559 1560 1559 1559 1559 1558 1557 1556 1555 1555 1554 1553 1551 1549 1547 1545 1543 1541 1539 1537 1535 1532
1503 1507 1511 1515 1520 1524 1528 1532 1536 1539 1542 1545 1547 1549 1551 1553 1554 1555 1556 1556 1557 1557 1557 1557 1557 1556 1556 1554 1553 1552 1552 1551 1550 1548 1547 1544 1542 1539 1537 1535 1533 1530 1528
1499 1503 1507 1512 1516 1520 1524 1528 1532 1536 1539 1541 1544 1546 1548 1550 1551 1552 1553 1554 1554 1554 1555 1554 1554 1554 1553 1552 1550 1549 1548 1547 1546 1544 1543 1541 1538 1535 1533 1530 1528 1526 1523
1496 1500 1504 1508 1512 1516 1521 1524 1528 1532 1535 1538 1540 1543 1545 1546 1548 1549 1550 1551 1551 1552 1552 1552 1551 1551 1550 1549 1547 1546 1545 1543 1542 1540 1538 1536 1533 1531 1528 1526 1523 1521 1519
1493 1497 1501 1504 1508 1513 1517 1521 1525 1528 1531 1534 1537 1539 1541 1543 1544 1545 1546 1547 1548 1548 1548 1548 1548 1547 1546 1546 1544 1543 1542 1540 1538 1536 1534 1531 1528 1526 1523 1521 1519 1517 1514
1490 1494 1497 1501 1505 1509 1513 1517 1521 1524 1527 1530 1533 1535 1537 1539 1540 1541 1542 1543 1544 1544 1544 1544 1544 1543 1543 1542 1540 1539 1537 1536 1534 1531 1529 1527 1525 1522 1520 1517 1515 1512 1510
1488 1491 1494 1498 1502 1505 1509 1513 1517 1520 1523 1526 1528 1531 1533 1534 1536 1537 1538 1538 1539 1539 1539 1539 1539 1538 1538 1537 1535 1534 1532 1531 1529 1527 1524 1522 1520 1518 1515 1512 1510 1507 1505